Date String (YYYY-MM-DD hh:mm:ss) UTC,Instrument flags,Ambient pressure (hPa),Sample flow (lpm),Bypass flow (lpm),Sample temperature (°C),Ambient temperature (°C),ASC tube jacket temperature (°C),LED temperature (°C),Box temperature (°C),Sample RH (%),Span deviation,Mass concentration (μg/m³),Mass concentration (μg/m³),Mass concentration (μg/m³)
DateTimeUTC,F1_M11,P_M11,Q1_M11,Q2_M11,T1_M11,T2_M11,T3_M11,T4_M11,T5_M11,U1_M11,ZSPAN_M11,X0_M11,X2_M11,X1_M11
2022-05-22 09:00:00,,0832.0,5.01,0.00,23.9,22.9,00.0,32.9,25.8,15.4,0000.0,0000.07,0000.04,0000.00
2022-05-22 09:01:00,,0832.0,5.01,0.00,23.9,22.9,00.0,32.9,25.8,15.4,0000.0,0000.07,0000.04,0000.00
2022-05-22 09:02:00,,0832.0,4.99,0.00,23.9,22.9,00.0,32.9,25.8,15.4,0000.0,0000.07,0000.04,0000.00
2022-05-22 09:03:00,,0831.9,5.01,0.00,23.9,22.9,00.0,32.9,25.8,15.5,0000.0,0000.09,0000.05,0000.00
2022-05-22 09:04:00,,0832.0,5.00,0.00,23.9,22.9,00.0,32.9,25.8,15.5,0000.0,0000.12,0000.06,0000.01
2022-05-22 09:05:00,,0831.9,4.99,0.00,23.9,22.9,00.0,32.9,25.8,15.6,0000.0,0000.06,0000.02,0000.00
2022-05-22 09:06:00,,0831.9,5.01,0.00,23.9,22.9,00.0,32.9,25.7,15.7,0000.0,0000.05,0000.02,0000.00
2022-05-22 09:07:00,,0831.9,4.99,0.00,23.9,22.9,00.0,32.9,25.7,15.7,0000.0,0000.05,0000.02,0000.00
2022-05-22 09:08:00,,0831.9,5.00,0.00,23.9,22.9,00.0,32.9,25.7,15.7,0000.0,0000.05,0000.02,0000.00
2022-05-22 09:09:00,,0831.9,5.00,0.00,23.9,22.9,00.0,32.9,25.7,15.7,0000.0,0000.05,0000.02,0000.00
2022-05-22 09:10:00,,0831.9,5.00,0.00,23.9,22.9,00.0,32.9,25.7,15.7,0000.0,0000.05,0000.02,0000.00
2022-05-22 09:11:00,,0831.9,5.01,0.00,23.9,22.9,00.0,32.9,25.7,15.7,0000.0,0000.05,0000.02,0000.00
2022-05-22 09:12:00,,0831.9,5.00,0.00,23.9,22.9,00.0,32.9,25.7,15.7,0000.0,0000.10,0000.03,0000.00
2022-05-22 09:13:00,,0831.9,5.00,0.00,23.9,22.9,00.0,32.9,25.7,15.6,0000.0,0000.10,0000.04,0000.00
2022-05-22 09:14:00,,0831.9,5.00,0.00,23.9,22.9,00.0,32.9,25.7,15.6,0000.0,0000.08,0000.03,0000.00
2022-05-22 09:15:00,,0832.0,5.00,0.00,23.9,22.9,00.0,32.9,25.7,15.5,0000.0,0000.06,0000.02,0000.00
2022-05-22 09:16:00,,0831.9,5.01,0.00,23.9,22.8,00.0,32.9,25.7,15.4,0000.0,0000.06,0000.02,0000.00
2022-05-22 09:17:00,,0832.0,4.99,0.00,23.9,22.8,00.0,32.9,25.7,15.5,0000.0,0000.06,0000.02,0000.00
2022-05-22 09:18:00,,0832.0,5.01,0.00,23.9,22.8,00.0,32.9,25.7,15.7,0000.0,0000.06,0000.02,0000.00
2022-05-22 09:19:00,,0832.0,5.00,0.00,23.9,22.8,00.0,32.8,25.7,15.6,0000.0,0000.06,0000.02,0000.00
2022-05-22 09:20:00,,0831.8,5.00,0.00,23.9,22.8,00.0,32.8,25.7,15.5,0000.0,0000.06,0000.02,0000.00
2022-05-22 09:21:00,,0831.7,5.01,0.00,23.9,22.8,00.0,32.8,25.7,15.6,0000.0,0000.06,0000.02,0000.00
2022-05-22 09:22:00,,0831.7,4.99,0.00,23.9,22.8,00.0,32.8,25.6,15.5,0000.0,0000.06,0000.02,0000.00
2022-05-22 09:23:00,,0831.7,5.01,0.00,23.9,22.8,00.0,32.8,25.7,15.6,0000.0,0000.01,0000.00,0000.00
2022-05-22 09:24:00,,0831.7,4.99,0.00,23.8,22.7,00.0,32.8,25.6,15.6,0000.0,0000.04,0000.02,0000.00
2022-05-22 09:25:00,,0831.7,5.01,0.00,23.8,22.7,00.0,32.8,25.6,15.8,0000.0,0000.05,0000.02,0000.00
2022-05-22 09:26:00,,0831.7,4.99,0.00,23.8,22.7,00.0,32.8,25.6,15.9,0000.0,0000.05,0000.02,0000.00
2022-05-22 09:27:00,,0831.7,5.01,0.00,23.8,22.7,00.0,32.8,25.6,16.0,0000.0,0000.05,0000.02,0000.00
2022-05-22 09:28:00,,0831.7,5.00,0.00,23.8,22.7,00.0,32.8,25.6,15.9,0000.0,0000.05,0000.02,0000.00
2022-05-22 09:29:00,,0831.7,5.00,0.00,23.8,22.7,00.0,32.8,25.6,15.9,0000.0,0000.09,0000.02,0000.00
2022-05-22 09:30:00,,0831.7,4.99,0.00,23.8,22.7,00.0,32.8,25.6,16.0,0000.0,0000.16,0000.03,0000.00
2022-05-22 09:31:00,,0831.7,5.00,0.00,23.8,22.7,00.0,32.8,25.6,16.0,0000.0,0000.16,0000.03,0000.00
2022-05-22 09:32:00,,0831.7,5.01,0.00,23.8,22.6,00.0,32.8,25.6,16.1,0000.0,0000.16,0000.03,0000.00
2022-05-22 09:33:00,,0831.7,5.00,0.00,23.8,22.6,00.0,32.8,25.5,16.0,0000.0,0000.16,0000.03,0000.00
2022-05-22 09:34:00,,0831.7,5.00,0.00,23.8,22.6,00.0,32.7,25.5,16.0,0000.0,0000.16,0000.03,0000.00
2022-05-22 09:35:00,,0831.7,5.00,0.00,23.8,22.6,00.0,32.7,25.5,16.0,0000.0,0000.16,0000.02,0000.00
2022-05-22 09:36:00,,0831.7,4.99,0.00,23.7,22.6,00.0,32.7,25.5,15.9,0000.0,0000.16,0000.03,0000.00
2022-05-22 09:37:00,,0831.7,5.01,0.00,23.7,22.6,00.0,32.7,25.5,15.9,0000.0,0000.16,0000.03,0000.00
2022-05-22 09:38:00,,0831.7,5.00,0.00,23.7,22.6,00.0,32.7,25.5,16.0,0000.0,0000.17,0000.03,0000.00
2022-05-22 09:39:00,,0831.7,5.00,0.00,23.7,22.5,00.0,32.7,25.5,16.0,0000.0,0000.17,0000.03,0000.00
2022-05-22 09:40:00,,0831.7,5.00,0.00,23.7,22.5,00.0,32.7,25.5,16.0,0000.0,0000.11,0000.03,0000.00
2022-05-22 09:41:00,,0831.7,5.01,0.00,23.7,22.5,00.0,32.7,25.5,16.1,0000.0,0000.05,0000.02,0000.00
2022-05-22 09:42:00,,0831.6,5.00,0.00,23.7,22.5,00.0,32.7,25.5,16.2,0000.0,0000.05,0000.02,0000.00
2022-05-22 09:43:00,,0831.7,5.00,0.00,23.7,22.5,00.0,32.7,25.5,16.3,0000.0,0000.05,0000.02,0000.00
2022-05-22 09:44:00,,0831.7,5.00,0.00,23.7,22.5,00.0,32.7,25.5,16.4,0000.0,0000.05,0000.02,0000.00
2022-05-22 09:45:00,,0831.7,5.01,0.00,23.7,22.5,00.0,32.7,25.5,16.4,0000.0,0000.05,0000.02,0000.00
2022-05-22 09:46:00,,0831.7,4.99,0.00,23.7,22.5,00.0,32.6,25.5,16.4,0000.0,0000.01,0000.01,0000.00
2022-05-22 09:47:00,,0831.7,5.00,0.00,23.6,22.5,00.0,32.6,25.5,16.3,0000.0,0000.01,0000.01,0000.00
2022-05-22 09:48:00,,0831.7,4.99,0.00,23.6,22.5,00.0,32.6,25.5,16.2,0000.0,0000.01,0000.01,0000.00
2022-05-22 09:49:00,,0831.7,5.01,0.00,23.6,22.5,00.0,32.6,25.5,16.2,0000.0,0000.00,0000.00,0000.00
2022-05-22 09:50:00,,0831.7,4.99,0.00,23.6,22.4,00.0,32.6,25.5,16.2,0000.0,0000.00,0000.00,0000.00
2022-05-22 09:51:00,,0831.7,4.99,0.00,23.6,22.4,00.0,32.6,25.4,16.2,0000.0,0000.00,0000.00,0000.00
2022-05-22 09:52:00,,0831.7,4.99,0.00,23.6,22.4,00.0,32.6,25.4,16.2,0000.0,0000.00,0000.00,0000.00
2022-05-22 09:53:00,,0831.7,5.01,0.00,23.6,22.4,00.0,32.6,25.4,16.2,0000.0,0000.00,0000.00,0000.00
2022-05-22 09:54:00,,0831.7,5.00,0.00,23.6,22.4,00.0,32.6,25.4,16.2,0000.0,0000.00,0000.00,0000.00
2022-05-22 09:55:00,,0831.7,5.00,0.00,23.6,22.4,00.0,32.6,25.4,16.2,0000.0,0000.00,0000.00,0000.00
2022-05-22 09:56:00,,0831.7,4.99,0.00,23.6,22.4,00.0,32.6,25.4,16.1,0000.0,0000.00,0000.00,0000.00
2022-05-22 09:57:00,,0831.6,5.00,0.00,23.6,22.4,00.0,32.5,25.4,16.1,0000.0,0000.00,0000.00,0000.00
2022-05-22 09:58:00,,0831.6,5.00,0.00,23.5,22.3,00.0,32.5,25.3,16.1,0000.0,0000.00,0000.00,0000.00
2022-05-22 09:59:00,,0831.6,5.01,0.00,23.5,22.3,00.0,32.5,25.3,16.0,0000.0,0000.00,0000.00,0000.00
